This is the latest recevied weather packets stored in our database for station/object KA3BQE-13. If no packets are shown the sender has not sent any weather packets the latest 10 day(s).
| Time | Temp. | Humidity | Pressure | Rain* | Wind** | Luminosity | Snow |
|---|---|---|---|---|---|---|---|
| 1777441758 | 11.67° C | 97% | 1015.3 hPa | 0 mm | - | 0 W/m² | - |
| 1777441454 | 11.67° C | 97% | 1015.2 hPa | 0.51 mm | - | 0 W/m² | - |
| 1777441149 | 11.67° C | 97% | 1015.8 hPa | 1.27 mm | - | 0 W/m² | - |
| 1777440845 | 12.22° C | 98% | 1015.4 hPa | 1.27 mm | - | 0 W/m² | - |
| 1777440540 | 12.22° C | 97% | 1015.6 hPa | 1.27 mm | - | 0 W/m² | - |
| 1777440236 | 12.22° C | 96% | 1015.4 hPa | 0 mm | - | 0 W/m² | - |
| 1777439933 | 12.22° C | 96% | 1015.7 hPa | 0 mm | - | 0 W/m² | - |
| 1777439629 | 12.22° C | 96% | 1015.7 hPa | 0 mm | - | 0 W/m² | - |
| 1777439325 | 12.22° C | 97% | 1015.4 hPa | 1.27 mm | - | 0 W/m² | - |
| 1777439020 | 11.67° C | 97% | 1014.9 hPa | 1.78 mm | - | 0 W/m² | - |
| 1777438719 | 12.22° C | 97% | 1015.1 hPa | 0.51 mm | - | 0 W/m² | - |
| 1777438415 | 12.22° C | 97% | 1015.1 hPa | 0.51 mm | - | 0 W/m² | - |
| 1777438110 | 11.67° C | 96% | 1014.9 hPa | 0 mm | - | 0 W/m² | - |
| 1777437806 | 11.67° C | 99% | 1015 hPa | 0 mm | - | 0 W/m² | - |
| 1777437503 | 11.67° C | 99% | 1014.7 hPa | 0 mm | - | 0 W/m² | - |
| 1777437200 | 11.67° C | 99% | 1015.1 hPa | 0 mm | - | 0 W/m² | - |
| 1777436896 | 11.67° C | 99% | 1015.1 hPa | 0 mm | - | 0 W/m² | - |
| 1777436594 | 11.67° C | 99% | 1015.2 hPa | 0 mm | - | 0 W/m² | - |
| 1777436290 | 11.67° C | 99% | 1015 hPa | 0 mm | - | 0 W/m² | - |
| 1777435985 | 11.11° C | 99% | 1015.2 hPa | 0 mm | - | 0 W/m² | - |
| 1777435682 | 11.11° C | 99% | 1015.1 hPa | 0 mm | - | 0 W/m² | - |
| 1777435378 | 10.56° C | 99% | 1015.4 hPa | 0 mm | - | 0 W/m² | - |
| 1777435078 | 10.56° C | 99% | 1015.4 hPa | 0 mm | - | 0 W/m² | - |
| 1777434774 | 10.56° C | 99% | 1015.3 hPa | 0 mm | - | 0 W/m² | - |
| 1777434473 | 10.56° C | 99% | 1015.3 hPa | 0 mm | - | 0 W/m² | - |
* Rain latest hour (hover to see other rain measurements)
** Current wind speed in m/s (hover to see current wind gust speed)